Satellite: CASTOR
Catalog number: 35694
Epoch time:      10230.44082147
Element set:     655
Inclination:      051.5930 deg
RA of node:       222.0149 deg
Eccentricity:    0.0004218
Arg of perigee:   308.0851 deg
Mean anomaly:     053.0105 deg
Mean motion:   16.48877011 rev/day
Decay rate:   7.179566e-02 rev/day^2
Epoch rev:            6110
Checksum:              273

Satellite: METEOR-M
Catalog number: 35865
Epoch time:      10316.05541018
Element set:     826
Inclination:      098.7396 deg
RA of node:       008.6516 deg
Eccentricity:    0.0002395
Arg of perigee:   321.9339 deg
Mean anomaly:     038.1664 deg
Mean motion:   14.21832865 rev/day
Decay rate:       1.76e-06 rev/day^2
Epoch rev:            5973
Checksum:              311

Satellite: RS-38
Catalog number: 35869
Epoch time:      10316.08099551
Element set:     838
Inclination:      098.7381 deg
RA of node:       008.7174 deg
Eccentricity:    0.0004079
Arg of perigee:   307.5985 deg
Mean anomaly:     052.4797 deg
Mean motion:   14.21993052 rev/day
Decay rate:       1.77e-06 rev/day^2
Epoch rev:            5974
Checksum:              349

/EX


_______________________________________________
Via the Keps mailing list courtesy of AMSAT-NA
http://amsat.org/mailman/listinfo/keps

--- ViaMAIL!/WC v1.60d
 * Origin: Chowdanet (401-724-4410) telnet://chowdanet.com  (1:323/120)